Location: Praha
(50.0830°N, 14.4670°E)
Time: 10:22:08
(UTC+02:00)

ISS - Pass Details

Date: 02 May 2025
Orbit: 416 x 419 km, 51.6° (Epoch: 18 May)

Event Time Altitude Azimuth Distance (km) Brightness Sun altitude
Exits shadow 04:33:54 - 281° (W) 1,945 -0.8 -9.3°
Reaches altitude 10° 04:35:00 10° 283° (WNW) 1,496 -1.3 -9.2°
Maximum altitude 04:38:21 69° 7° (N) 450 -3.5 -8.8°
Drops below altitude 10° 04:41:42 10° 92° (E) 1,496 -0.1 -8.3°
Sets 04:43:48 0° 95° (E) 2,359 0.9 -8.1°
